Regional Weather Roundup
Issued by NWS Jackson, KY

Home | Current Version | Previous Version | Text Only | Print | Product List | Glossary Off
Versions: 1 2 3 4 5 6 7 8 9 10 11 12 13 14 15 16 17 18 19 20 21 22 23 24 25 26 27 28 29 30 31 32 33 34 35 36 37 38 39 40 41 42 43 44 45 46 47 48 49 50

000
ASUS43 KJKL 260511
RWRJKL

EAST KENTUCKY HOURLY WEATHER ROUNDUP
NATIONAL WEATHER SERVICE JACKSON KY
1200 AM EST FRI DEC 26 2014

NOTE: "FAIR" INDICATES FEW OR NO CLOUDS BELOW 12,000 FEET WITH
NO SIGNIFICANT WEATHER AND/OR OBSTRUCTIONS TO VISIBILITY.

* THESE REPORTS ARE NOT UNDER NWS QUALITY CONTROL AND MAY NOT
  REPORT WEATHER SUCH AS PRECIPITATION AND FOG.

KYZ079-080-083-085-087-088-110-112-115-119-120-260600
...EASTERN KENTUCKY...

CITY           SKY/WX    TMP DP  RH WIND       PRES   REMARKS
JACKSON        CLEAR     37  30  75 SE3       30.19F
LONDON         CLEAR     31  26  82 CALM      30.21R
SOMERSET*      CLEAR     30  30 100 CALM      30.24R
MONTICELLO*    CLEAR     28  27  96 CALM      30.24R
MIDDLESBORO*   CLEAR     30  29  99 CALM      30.25R
HARLAN APT*    CLEAR     32  32 100 E5        30.22R WCI  27
BIG SANDY*     CLEAR     33  31  92 SE3       30.22S
MOREHEAD APT*  CLEAR     32  28  86 SE5       30.23R WCI  27
$$

KYZ035-036-041-042-044-050-067-078-099-260600
...CENTRAL KENTUCKY...

CITY           SKY/WX    TMP DP  RH WIND       PRES   REMARKS
MT STERLING*   CLEAR     28  28 100 S3        30.22R
FLEMING/MASON* CLEAR     32  30  92 S3        30.22R
DANVILLE*      CLEAR     28  28 100 CALM      30.21S
RICHMOND*      CLEAR     34  30  86 S5        30.20S WCI  30
LEXINGTON      CLEAR     33  30  88 SE8       30.19S WCI  26
FRANKFORT      CLEAR     31  28  89 CALM      30.19R
$$

KYZ091>093-OHZ055-061-077-WVZ005-015-034-035-042-260600
...SOUTHERN OHIO/WEST VIRGINIA...

CITY           SKY/WX    TMP DP  RH WIND       PRES   REMARKS
COVINGTON      CLEAR     33  27  78 S3        30.17S
COLUMBUS       CLEAR     34  28  79 SE6       30.17F WCI  29
DAYTON         CLEAR     35  30  82 S7        30.17R WCI  29
WILMINGTON     CLEAR     32  28  85 S7        30.17S WCI  26
HUNTINGTON     CLEAR     30  28  92 CALM      30.22S
CHARLESTON     CLEAR     29  28  96 SE3       30.22F
PINEVILLE*     CLEAR     30  30 100 MISG      30.27F
BECKLEY        CLEAR     29  26  89 S7        30.20S WCI  22
BLUEFIELD      CLEAR     34  28  79 CALM      30.21R
$$

VAZ002-007-008-TNZ017-027-036-066-071-260600
...SOUTHWEST VIRGINIA/EAST TENNESSEE...

CITY           SKY/WX    TMP DP  RH WIND       PRES   REMARKS
WISE*          CLEAR     32  28  86 CALM      30.19F
JONESVILLE*    CLEAR     28  28 100 CALM      30.26S
ABINGDON*      CLEAR     31  29  93 CALM      30.22F
BRISTOL        CLEAR     29  27  92 CALM      30.23F
KNOXVILLE      CLEAR     34  31  88 CALM      30.24R
OAK RIDGE      CLEAR     32  30  92 CALM      30.27R
CROSSVILLE     CLEAR     37  31  78 S5        30.21R WCI  33
NASHVILLE      CLEAR     38  33  82 SE3       30.21S
$$

...KEY TO REMARKS...
VSB - VISIBILITY IN MILES
WCI - WIND CHILL INDEX
HX  - HEAT INDEX

$$


USA.gov is the U.S. government's official web portal to all federal, state and local government web resources and services.